TimePST,TemperatureF,Dew PointF,Humidity,Sea Level PressureIn,VisibilityMPH,Wind Direction,Wind SpeedMPH,Gust SpeedMPH,PrecipitationIn,Events,Conditions,WindDirDegrees,DateUTC
12:53 AM,45.0,32.0,60,30.02,10.0,Calm,Calm,-,N/A,,Clear,0,2012-11-14 08:53:00
1:53 AM,42.1,30.9,65,30.03,10.0,Calm,Calm,-,N/A,,Clear,0,2012-11-14 09:53:00
2:53 AM,45.0,30.0,56,30.01,10.0,Calm,Calm,-,N/A,,Clear,0,2012-11-14 10:53:00
3:53 AM,44.1,30.9,60,30.02,10.0,Calm,Calm,-,N/A,,Clear,0,2012-11-14 11:53:00
4:53 AM,43.0,30.0,60,30.00,10.0,Calm,Calm,-,N/A,,Clear,0,2012-11-14 12:53:00
5:53 AM,43.0,30.0,60,30.00,10.0,Calm,Calm,-,N/A,,Clear,0,2012-11-14 13:53:00
6:53 AM,44.1,30.0,58,30.02,10.0,Calm,Calm,-,N/A,,Clear,0,2012-11-14 14:53:00
7:53 AM,50.0,33.1,52,30.04,10.0,Calm,Calm,-,N/A,,Clear,0,2012-11-14 15:53:00
8:53 AM,63.0,30.0,29,30.05,10.0,Calm,Calm,-,N/A,,Clear,0,2012-11-14 16:53:00
9:53 AM,68.0,41.0,37,30.05,10.0,SSE,4.6,-,N/A,,Clear,150,2012-11-14 17:53:00
10:53 AM,68.0,33.1,27,30.05,10.0,Calm,Calm,-,N/A,,Clear,0,2012-11-14 18:53:00
11:53 AM,66.9,39.9,37,30.03,10.0,SSE,8.1,-,N/A,,Clear,160,2012-11-14 19:53:00
12:53 PM,70.0,39.9,33,30.01,10.0,SE,6.9,-,N/A,,Clear,130,2012-11-14 20:53:00
1:53 PM,70.0,43.0,38,29.99,10.0,SSE,8.1,-,N/A,,Clear,150,2012-11-14 21:53:00
2:53 PM,70.0,30.9,24,29.99,10.0,SE,5.8,-,N/A,,Clear,130,2012-11-14 22:53:00
3:53 PM,70.0,32.0,25,29.99,10.0,East,3.5,-,N/A,,Clear,90,2012-11-14 23:53:00
4:53 PM,66.0,35.1,32,29.99,10.0,Calm,Calm,-,N/A,,Clear,0,2012-11-15 00:53:00
5:53 PM,60.1,37.0,42,29.99,10.0,Calm,Calm,-,N/A,,Clear,0,2012-11-15 01:53:00
6:53 PM,59.0,37.0,44,30.01,10.0,NE,3.5,-,N/A,,Clear,40,2012-11-15 02:53:00
7:53 PM,54.0,37.0,53,30.01,10.0,NNW,3.5,-,N/A,,Clear,330,2012-11-15 03:53:00
8:53 PM,55.0,37.0,51,30.02,10.0,Calm,Calm,-,N/A,,Clear,0,2012-11-15 04:53:00
9:53 PM,54.0,39.0,57,30.01,10.0,NNE,3.5,-,N/A,,Clear,30,2012-11-15 05:53:00
10:53 PM,53.1,39.0,59,30.00,10.0,Calm,Calm,-,N/A,,Clear,0,2012-11-15 06:53:00
11:53 PM,53.1,39.9,61,29.99,10.0,Calm,Calm,-,N/A,,Clear,0,2012-11-15 07:53:00